TimeEST,TemperatureF,Dew PointF,Humidity,Sea Level PressureIn,VisibilityMPH,Wind Direction,Wind SpeedMPH,Gust SpeedMPH,PrecipitationIn,Events,Conditions,WindDirDegrees,DateUTC
12:54 AM,21.0,18.0,88,29.83,0.2,Calm,Calm,-,0.06,Fog-Snow,Snow,0,2013-02-09 05:54:00
1:11 AM,21.2,17.6,86,29.80,0.5,NNW,5.8,-,0.03,Fog-Snow,Snow,330,2013-02-09 06:11:00
1:29 AM,21.2,17.6,86,29.79,0.5,NW,8.1,-,0.05,Fog-Snow,Snow,320,2013-02-09 06:29:00
1:54 AM,21.0,17.1,85,29.83,0.8,NNW,11.5,-,0.07,Snow,Light Snow,340,2013-02-09 06:54:00
2:05 AM,21.2,17.6,86,29.80,0.8,NW,10.4,-,0.00,Snow,Light Snow,320,2013-02-09 07:05:00
2:54 AM,19.0,15.1,85,29.85,1.0,NW,12.7,18.4,0.01,Snow,Light Snow,320,2013-02-09 07:54:00
3:41 AM,17.6,12.2,79,29.82,0.8,NNW,9.2,20.7,0.01,Snow,Light Snow,330,2013-02-09 08:41:00
3:54 AM,17.1,12.9,84,29.86,0.5,NW,12.7,-,0.01,Fog-Snow,Snow,320,2013-02-09 08:54:00
4:20 AM,17.6,12.2,79,29.83,1.0,Variable,5.8,27.6,0.01,Snow,Light Snow,0,2013-02-09 09:20:00
4:47 AM,15.8,10.4,79,29.83,1.2,NW,12.7,25.3,0.01,Snow,Light Snow,320,2013-02-09 09:47:00
4:54 AM,15.1,10.0,80,29.87,1.2,NNW,11.5,20.7,0.01,Snow,Light Snow,330,2013-02-09 09:54:00
5:20 AM,15.8,8.6,73,29.85,2.0,NNW,11.5,20.7,0.00,Snow,Light Snow,330,2013-02-09 10:20:00
5:35 AM,14.0,8.6,79,29.85,2.0,NW,13.8,23.0,0.00,Snow,Light Snow,320,2013-02-09 10:35:00
5:52 AM,14.0,6.8,73,29.86,4.0,NNW,16.1,24.2,0.00,Snow,Light Snow,330,2013-02-09 10:52:00
5:54 AM,14.0,7.0,74,29.90,4.0,NNW,13.8,24.2,0.00,Snow,Light Snow,330,2013-02-09 10:54:00
6:54 AM,12.9,5.0,71,29.94,6.0,NNW,12.7,23.0,0.00,Snow,Light Snow,340,2013-02-09 11:54:00
7:21 AM,12.2,3.2,67,29.91,6.0,NNW,13.8,23.0,0.00,Snow,Light Snow,330,2013-02-09 12:21:00
7:31 AM,12.2,3.2,67,29.92,5.0,NNW,12.7,21.9,0.00,,Haze,330,2013-02-09 12:31:00
7:54 AM,10.9,3.0,70,29.98,5.0,NNW,17.3,26.5,0.00,,Haze,340,2013-02-09 12:54:00
8:54 AM,10.9,1.9,67,30.02,7.0,NNW,18.4,26.5,0.00,,Overcast,330,2013-02-09 13:54:00
9:40 AM,10.4,1.4,67,29.99,8.0,NNW,19.6,28.8,N/A,,Overcast,330,2013-02-09 14:40:00
9:54 AM,12.0,1.0,61,30.04,9.0,NNW,18.4,28.8,N/A,,Overcast,330,2013-02-09 14:54:00
10:25 AM,12.2,1.4,62,30.02,10.0,NNW,19.6,27.6,N/A,,Overcast,330,2013-02-09 15:25:00
10:54 AM,12.0,1.0,61,30.08,10.0,NNW,15.0,27.6,N/A,,Overcast,340,2013-02-09 15:54:00
11:54 AM,14.0,3.0,62,30.09,10.0,NW,12.7,26.5,N/A,,Partly Cloudy,320,2013-02-09 16:54:00
12:10 PM,12.2,1.4,62,30.05,9.0,NW,12.7,20.7,N/A,,Mostly Cloudy,320,2013-02-09 17:10:00
12:52 PM,15.8,1.4,53,30.06,10.0,NNW,19.6,27.6,N/A,,Scattered Clouds,330,2013-02-09 17:52:00
12:54 PM,15.1,1.0,54,30.11,10.0,North,17.3,27.6,N/A,,Partly Cloudy,350,2013-02-09 17:54:00
1:54 PM,18.0,-0.9,44,30.12,10.0,NNW,11.5,24.2,N/A,,Clear,340,2013-02-09 18:54:00
2:54 PM,19.0,-2.0,40,30.13,10.0,NNW,10.4,18.4,N/A,,Clear,340,2013-02-09 19:54:00
3:54 PM,19.9,-2.9,37,30.14,10.0,NNW,13.8,19.6,N/A,,Clear,340,2013-02-09 20:54:00
4:54 PM,17.1,-2.0,43,30.18,10.0,NW,6.9,-,N/A,,Clear,320,2013-02-09 21:54:00
5:54 PM,16.0,-4.0,41,30.22,10.0,NNW,15.0,24.2,N/A,,Clear,330,2013-02-09 22:54:00
6:54 PM,14.0,-5.1,43,30.26,10.0,NNW,9.2,16.1,N/A,,Clear,340,2013-02-09 23:54:00
7:54 PM,14.0,-7.1,39,30.28,10.0,North,5.8,-,N/A,,Clear,350,2013-02-10 00:54:00
8:54 PM,15.1,-9.0,34,30.30,10.0,NW,9.2,18.4,N/A,,Clear,320,2013-02-10 01:54:00
9:54 PM,12.0,-8.0,41,30.32,10.0,WNW,5.8,-,N/A,,Clear,300,2013-02-10 02:54:00
10:54 PM,12.0,-6.0,44,30.33,10.0,NW,10.4,-,N/A,,Clear,320,2013-02-10 03:54:00
11:54 PM,12.0,-5.1,46,30.34,10.0,WSW,8.1,-,N/A,,Clear,240,2013-02-10 04:54:00